Flag for Germany Weather past 2 weeks in Gross-Gerau, Hesse, Germany

Now
57 °F

Fog.


Feels Like: 57 °F
Forecast: 58 / 75 °F
Wind: 5 mph from Southwest

Location: Frankfurt-M-Flughafen Airport

Current Time: May 4, 2015 at 4:07:39 AM

Latest Report: May 4, 2015 at 3:20 AM


Visibility: N/A

Pressure: 29.77 "Hg

Humidity: 100%

Dew point: 57 °F

Location of Gross-GerauLocation

Historic Weather in Gross-Gerau — Graph

°F

Gross-Gerau temperature yesterday

Maximum temperature yesterday: 63 °F (at 3:20 PM)
Minimum temperature yesterday: 50 °F (at 12:50 AM)
Average temperature yesterday: 57 °F

Past Weeks' High & Low Weather Summary

 TemperatureHumidityPressure
High75 °F (Apr 21, 4:50 PM)100% (Apr 23, 5:50 AM)30.42 "Hg (Apr 23, 5:50 AM)
Low32 °F (Apr 29, 4:20 AM)20% (Apr 19, 5:20 PM)29.56 "Hg (Apr 27, 3:50 AM)
Average53 °F66%29.97 "Hg
* Reported Apr 19 3:20 AM — May 4 3:20 AM, Gross-Gerau, Weather by CustomWeather, © 2015

Note: Actual official high and low records may vary slightly from our data, if they occured in-between our weather recording intervals... More about our weather records

Advertising

Gross-Gerau weather history for previous 24 hours

 ConditionsComfort  
Time TempWeatherWind HumidityBarometerVisibility
3:20 AM
Mon, May 4
57 °FFog.5 mph100%29.77 "HgN/A
2:20 AM59 °FPartly cloudy.6 mph94%29.77 "HgN/A
1:50 AM59 °FPassing clouds.5 mph100%29.74 "HgN/A
1:20 AM59 °FPassing clouds.7 mph100%29.74 "HgN/A
12:50 AM61 °FPassing clouds.3 mph94%29.74 "HgN/A
12:20 AM59 °FPartly cloudy.7 mph100%29.71 "HgN/A
11:50 PM
Sun, May 3
61 °FLight rain. Passing clouds.10 mph94%29.71 "HgN/A
11:20 PM61 °FLight rain. Passing clouds.9 mph94%29.71 "HgN/A
10:50 PM61 °FPartly cloudy.12 mph94%29.71 "HgN/A
10:20 PM61 °FPassing clouds.8 mph94%29.71 "HgN/A
9:50 PM61 °FPartly cloudy.9 mph94%29.68 "HgN/A
9:20 PM61 °FLight rain. Partly sunny.9 mph94%29.68 "HgN/A
8:50 PM61 °FLight rain. Partly sunny.7 mph94%29.68 "HgN/A
8:20 PM61 °FLight rain. Partly sunny.8 mph94%29.68 "HgN/A
7:50 PM61 °FLight rain. Partly sunny.6 mph94%29.68 "HgN/A
7:20 PM61 °FLight rain. Broken clouds.7 mph94%29.68 "HgN/A
6:50 PM61 °FLight rain. More clouds than sun.7 mph94%29.68 "HgN/A
6:20 PM61 °FLight rain. Broken clouds.7 mph94%29.68 "HgN/A
5:50 PM61 °FLight rain. Broken clouds.7 mph94%29.68 "HgN/A
5:20 PM61 °FLight rain. Broken clouds.9 mph94%29.68 "HgN/A
4:50 PM61 °FLight rain. Broken clouds.8 mph94%29.68 "HgN/A
4:20 PM61 °FLight rain. Broken clouds.9 mph94%29.68 "HgN/A
3:50 PM61 °FLight rain. Broken clouds.9 mph88%29.68 "HgN/A
3:20 PM63 °FLight rain. Broken clouds.8 mph83%29.68 "HgN/A
2:50 PM61 °FBroken clouds.12 mph88%29.68 "HgN/A
2:20 PM61 °FDrizzle. Broken clouds.7 mph94%29.71 "Hg5 mi
1:50 PM59 °FDrizzle. Broken clouds.7 mph94%29.71 "Hg2 mi
1:20 PM59 °FDrizzle. Broken clouds.7 mph88%29.71 "HgN/A
12:50 PM59 °FBroken clouds.5 mph88%29.71 "HgN/A
12:20 PM59 °FPartly sunny.5 mph88%29.71 "HgN/A
11:50 AM57 °FPartly sunny.3 mph94%29.71 "HgN/A
11:20 AM55 °FLow clouds.5 mph94%29.71 "HgN/A
10:50 AM55 °FDrizzle. Mostly cloudy.3 mph94%29.71 "Hg5 mi
10:20 AM55 °FMostly cloudy.5 mph94%29.71 "Hg6 mi
9:50 AM54 °FDrizzle. Partly sunny.6 mph94%29.71 "Hg4 mi
9:20 AM54 °FDrizzle. Broken clouds.5 mph94%29.71 "Hg4 mi
8:50 AM54 °FDrizzle. More clouds than sun.5 mph94%29.71 "Hg4 mi
8:20 AM52 °FLight rain. Overcast.5 mph94%29.71 "Hg5 mi
7:50 AM54 °FBroken clouds.5 mph88%29.74 "HgN/A
7:20 AM52 °FBroken clouds.7 mph94%29.71 "HgN/A
6:50 AM52 °FLight rain. Passing clouds.7 mph94%29.71 "HgN/A
6:20 AM52 °FPassing clouds.8 mph88%29.74 "HgN/A
5:50 AM52 °FOvercast.8 mph88%29.74 "HgN/A
5:20 AM52 °FLight rain. Passing clouds.8 mph88%29.74 "HgN/A
4:50 AM52 °FLight rain. Mostly cloudy.6 mph88%29.74 "HgN/A
4:20 AM52 °FLight rain. Mostly cloudy.5 mph88%29.74 "HgN/A
Weather by CustomWeather, © 2015

See weather overviewHow to use our weather pages